When you browse on this site, cookies collect data to enhance your experience and personalize the content and advertising you see.
Visit our Privacy Policy to learn more. By continuing to use the site, you agree to this use of cookies and data.
  • In France
  • List of Countries
  • For 7 days
  • Water Temperature
  • Weather Map
  • Weather Widgets
  • user-avatar
    Login

    Hourly Weather Nkongsamba

    Today, 7 April, Tuesday

    Time Temperature Precipitation Wind Pressure Humidity
    00:00 +21°C° 0 mm 0 mps 686 mmHg 92%
    01:00 +23°C° 0 mm 1 mps 686 mmHg 92%
    02:00 +20°C° 0 mm 0 mps 685 mmHg 91%
    03:00 +20°C° 0 mm 0 mps 684 mmHg 91%
    04:00 +20°C° 0 mm 0 mps 684 mmHg 90%
    05:00 +20°C° 0 mm 0 mps 684 mmHg 91%
    06:00 +20°C° 0 mm 0 mps 685 mmHg 92%
    07:00 +21°C° 0 mm 0 mps 685 mmHg 92%
    08:00 +22°C° 0 mm 0 mps 686 mmHg 86%
    09:00 +24°C° 0 mm 0 mps 687 mmHg 79%
    10:00 +28°C° 0 mm 1 mps 687 mmHg 73%
    11:00 +28°C° 0.3 mm 1 mps 687 mmHg 71%
    12:00 +29°C° 0.3 mm 1 mps 686 mmHg 69%
    13:00 +30°C° 0.3 mm 1 mps 686 mmHg 67%
    14:00 +29°C° 0.9 mm 1 mps 685 mmHg 69%
    15:00 +29°C° 0.9 mm 1 mps 684 mmHg 70%
    16:00 +29°C° 0.9 mm 1 mps 683 mmHg 72%
    17:00 +27°C° 1.6 mm 1 mps 683 mmHg 78%
    18:00 +26°C° 1.6 mm 1 mps 684 mmHg 84%
    19:00 +22°C° 1.6 mm 0 mps 684 mmHg 91%
    20:00 +22°C° 0.5 mm 0 mps 684 mmHg 93%
    21:00 +21°C° 0.5 mm 0 mps 685 mmHg 94%
    22:00 +21°C° 0.5 mm 0 mps 685 mmHg 96%
    23:00 +21°C° 1.4 mm 0 mps 685 mmHg 97%

    Tomorrow, 8 April, Wednesday

    Time Temperature Precipitation Wind Pressure Humidity
    00:00 +21°C° 1.4 mm 0 mps 685 mmHg 97%
    01:00 +21°C° 1.4 mm 0 mps 685 mmHg 97%
    02:00 +21°C° 1.6 mm 0 mps 685 mmHg 97%
    03:00 +20°C° 1.6 mm 0 mps 684 mmHg 96%
    04:00 +22°C° 1.6 mm 1 mps 684 mmHg 96%
    05:00 +22°C° 2.3 mm 1 mps 684 mmHg 96%
    06:00 +22°C° 2.3 mm 1 mps 685 mmHg 95%
    07:00 +22°C° 2.3 mm 1 mps 685 mmHg 95%
    08:00 +23°C° 0 mm 1 mps 685 mmHg 92%
    09:00 +24°C° 0 mm 1 mps 685 mmHg 89%
    10:00 +23°C° 0 mm 0 mps 686 mmHg 86%
    11:00 +26°C° 0.2 mm 1 mps 686 mmHg 79%
    12:00 +28°C° 0.2 mm 1 mps 685 mmHg 71%
    13:00 +29°C° 0.2 mm 1 mps 685 mmHg 64%
    14:00 +29°C° 0.5 mm 1 mps 685 mmHg 64%
    15:00 +29°C° 0.5 mm 1 mps 684 mmHg 65%
    16:00 +29°C° 0.5 mm 1 mps 684 mmHg 65%
    17:00 +28°C° 0.3 mm 1 mps 684 mmHg 73%
    18:00 +26°C° 0.3 mm 1 mps 684 mmHg 82%
    19:00 +22°C° 0.3 mm 0 mps 683 mmHg 90%
    20:00 +22°C° 0 mm 0 mps 684 mmHg 92%
    21:00 +21°C° 0 mm 0 mps 684 mmHg 93%
    22:00 +21°C° 0 mm 0 mps 684 mmHg 95%
    23:00 +21°C° 0 mm 0 mps 684 mmHg 96%

    Day after tomorrow, 9 April, Thursday

    Time Temperature Precipitation Wind Pressure Humidity
    00:00 +21°C° 0 mm 0 mps 684 mmHg 96%
    01:00 +21°C° 0 mm 0 mps 684 mmHg 96%
    02:00 +21°C° 0.3 mm 0 mps 684 mmHg 97%
    03:00 +22°C° 0.3 mm 1 mps 684 mmHg 97%
    04:00 +22°C° 0.3 mm 1 mps 684 mmHg 97%
    05:00 +22°C° 0.7 mm 1 mps 684 mmHg 97%
    06:00 +22°C° 0.7 mm 1 mps 685 mmHg 96%
    07:00 +22°C° 0.7 mm 1 mps 685 mmHg 96%
    08:00 +23°C° 0 mm 1 mps 686 mmHg 91%
    09:00 +24°C° 0 mm 1 mps 686 mmHg 87%
    10:00 +25°C° 0 mm 1 mps 687 mmHg 83%
    11:00 +27°C° 0.1 mm 1 mps 686 mmHg 74%
    12:00 +28°C° 0.1 mm 1 mps 686 mmHg 66%
    13:00 +30°C° 0.1 mm 2 mps 686 mmHg 57%
    14:00 +29°C° 1.3 mm 1 mps 685 mmHg 65%
    15:00 +28°C° 1.3 mm 1 mps 685 mmHg 73%
    16:00 +27°C° 1.3 mm 1 mps 684 mmHg 81%
    17:00 +26°C° 0.6 mm 1 mps 684 mmHg 84%
    18:00 +22°C° 0.6 mm 0 mps 684 mmHg 88%
    19:00 +21°C° 0.6 mm 0 mps 684 mmHg 92%
    20:00 +21°C° 0 mm 0 mps 684 mmHg 93%
    21:00 +21°C° 0 mm 0 mps 684 mmHg 94%
    22:00 +20°C° 0 mm 0 mps 684 mmHg 94%
    23:00 +20°C° 0 mm 0 mps 684 mmHg 94%

    10 April, Friday

    Time Temperature Precipitation Wind Pressure Humidity
    00:00 +22°C° 0 mm 1 mps 684 mmHg 93%
    01:00 +22°C° 0 mm 1 mps 684 mmHg 93%
    02:00 +22°C° 0 mm 1 mps 683 mmHg 92%
    03:00 +22°C° 0 mm 1 mps 683 mmHg 91%
    04:00 +22°C° 0 mm 1 mps 683 mmHg 89%
    05:00 +22°C° 0 mm 1 mps 684 mmHg 90%
    06:00 +22°C° 0 mm 1 mps 684 mmHg 90%
    07:00 +20°C° 0 mm 0 mps 685 mmHg 90%
    08:00 +21°C° 0.1 mm 0 mps 685 mmHg 87%
    09:00 +22°C° 0.1 mm 0 mps 686 mmHg 85%
    10:00 +23°C° 0.1 mm 0 mps 686 mmHg 82%
    11:00 +23°C° 0.3 mm 0 mps 686 mmHg 81%
    12:00 +24°C° 0.3 mm 0 mps 686 mmHg 80%
    13:00 +24°C° 0.3 mm 0 mps 685 mmHg 79%
    14:00 +25°C° 0.6 mm 0 mps 685 mmHg 76%
    15:00 +26°C° 0.6 mm 0 mps 684 mmHg 74%
    16:00 +26°C° 0.6 mm 0 mps 684 mmHg 71%
    17:00 +25°C° 0.5 mm 0 mps 684 mmHg 77%
    18:00 +23°C° 0.5 mm 0 mps 684 mmHg 83%
    19:00 +22°C° 0.5 mm 0 mps 684 mmHg 89%
    20:00 +21°C° 0.3 mm 0 mps 684 mmHg 91%
    21:00 +21°C° 0.3 mm 0 mps 684 mmHg 92%
    22:00 +20°C° 0.3 mm 0 mps 685 mmHg 94%
    23:00 +20°C° 0.1 mm 0 mps 684 mmHg 94%

    11 April, Saturday

    Time Temperature Precipitation Wind Pressure Humidity
    00:00 +20°C° 0.1 mm 0 mps 684 mmHg 94%
    01:00 +20°C° 0.1 mm 0 mps 684 mmHg 95%
    02:00 +20°C° 0 mm 0 mps 684 mmHg 95%
    03:00 +20°C° 0 mm 0 mps 683 mmHg 95%
    04:00 +19°C° 0 mm 0 mps 683 mmHg 95%
    05:00 +20°C° 0 mm 0 mps 684 mmHg 95%
    06:00 +20°C° 0 mm 0 mps 684 mmHg 94%
    07:00 +20°C° 0 mm 0 mps 684 mmHg 93%
    08:00 +22°C° 0 mm 0 mps 685 mmHg 85%
    09:00 +25°C° 0 mm 0 mps 686 mmHg 77%
    10:00 +27°C° 0 mm 0 mps 687 mmHg 69%
    11:00 +29°C° 0.4 mm 1 mps 686 mmHg 66%
    12:00 +30°C° 0.4 mm 1 mps 685 mmHg 63%
    13:00 +31°C° 0.4 mm 1 mps 685 mmHg 60%
    14:00 +30°C° 2.1 mm 1 mps 684 mmHg 66%
    15:00 +29°C° 2.1 mm 1 mps 683 mmHg 73%
    16:00 +28°C° 2.1 mm 1 mps 683 mmHg 79%
    17:00 +26°C° 1 mm 1 mps 683 mmHg 84%
    18:00 +25°C° 1 mm 1 mps 683 mmHg 89%
    19:00 +23°C° 1 mm 1 mps 683 mmHg 93%
    20:00 +21°C° 0.1 mm 0 mps 684 mmHg 94%
    21:00 +21°C° 0.1 mm 0 mps 684 mmHg 95%
    22:00 +20°C° 0.1 mm 0 mps 685 mmHg 95%
    23:00 +20°C° 0 mm 0 mps 684 mmHg 95%

    12 April, Sunday

    Time Temperature Precipitation Wind Pressure Humidity
    00:00 +20°C° 0 mm 0 mps 684 mmHg 95%
    01:00 +20°C° 0 mm 0 mps 684 mmHg 95%
    02:00 +20°C° 0 mm 0 mps 684 mmHg 96%
    03:00 +20°C° 0 mm 0 mps 683 mmHg 97%
    04:00 +19°C° 0 mm 0 mps 683 mmHg 98%
    05:00 +20°C° 0 mm 0 mps 684 mmHg 97%
    06:00 +20°C° 0 mm 0 mps 684 mmHg 96%
    07:00 +20°C° 0 mm 0 mps 685 mmHg 96%
    08:00 +22°C° 0 mm 0 mps 685 mmHg 89%
    09:00 +24°C° 0 mm 0 mps 686 mmHg 82%
    10:00 +27°C° 0 mm 1 mps 687 mmHg 76%
    11:00 +28°C° 0.2 mm 1 mps 686 mmHg 71%
    12:00 +29°C° 0.2 mm 1 mps 686 mmHg 66%
    13:00 +30°C° 0.2 mm 1 mps 685 mmHg 61%
    14:00 +29°C° 1.2 mm 1 mps 684 mmHg 67%
    15:00 +29°C° 1.2 mm 1 mps 684 mmHg 72%
    16:00 +28°C° 1.2 mm 1 mps 683 mmHg 78%
    17:00 +26°C° 1.2 mm 1 mps 683 mmHg 83%
    18:00 +23°C° 1.2 mm 0 mps 684 mmHg 88%
    19:00 +21°C° 1.2 mm 0 mps 684 mmHg 93%
    20:00 +21°C° 1.4 mm 0 mps 684 mmHg 93%
    21:00 +21°C° 1.4 mm 0 mps 685 mmHg 93%
    22:00 +21°C° 1.4 mm 0 mps 685 mmHg 94%
    23:00 +20°C° 0 mm 0 mps 685 mmHg 94%
    Show more